軌道要素
Epoch 2001 Apr. 1.0 TT = JDT 2452000.5  
T 2001 Mar. 26.63397 TT                                 Muraoka 
q   1.0007516            (2000.0)            P               Q
n   0.22932597     Peri.   91.09030     +0.99825982     -0.03344461
a   2.6434264      Node   270.82758     +0.01137232     +0.91733605
e   0.6214188      Incl.    2.78409     +0.05786186     +0.39670648
P   4.30
From 136 observations 1949-2000, mean residual 0".83.
 
  |